TimeCET,TemperatureF,Dew PointF,Humidity,Sea Level PressureIn,VisibilityMPH,Wind Direction,Wind SpeedMPH,Gust SpeedMPH,PrecipitationIn,Events,Conditions,WindDirDegrees,DateUTC
12:25 AM,26.6,24.8,93,29.80,6.2,NE,17.3,-,N/A,Snow,Light Snow,50,2013-03-10 23:25:00
12:55 AM,26.6,24.8,93,29.80,4.3,NE,17.3,-,N/A,Snow,Light Snow,50,2013-03-10 23:55:00
1:00 AM,27,24,84,29.81,6,NE,15.7,,,Snow,Light Snow,50,2013-03-11 00:00:00
1:25 AM,26.6,23.0,86,29.80,6.2,NE,17.3,-,N/A,Snow,Light Snow,50,2013-03-11 00:25:00
1:55 AM,26.6,24.8,93,29.80,5.0,NE,17.3,-,N/A,Snow,Light Snow,50,2013-03-11 00:55:00
2:25 AM,26.6,24.8,93,29.80,5.6,NE,16.1,-,N/A,Snow,Light Snow,40,2013-03-11 01:25:00
2:55 AM,26.6,24.8,93,29.80,6.2,NE,16.1,-,N/A,Snow,Light Snow,50,2013-03-11 01:55:00
3:25 AM,26.6,23.0,86,29.80,6.2,NE,16.1,-,N/A,,Overcast,50,2013-03-11 02:25:00
3:55 AM,26.6,23.0,86,29.80,6.2,NE,17.3,-,N/A,,Overcast,50,2013-03-11 02:55:00
4:00 AM,26,22,81,29.82,9,NE,17.9,,,Snow,Snow Grains,50,2013-03-11 03:00:00
4:25 AM,26.6,21.2,80,29.80,6.2,NE,19.6,-,N/A,,Overcast,50,2013-03-11 03:25:00
4:55 AM,26.6,21.2,80,29.80,6.2,NE,18.4,-,N/A,,Mostly Cloudy,50,2013-03-11 03:55:00
5:25 AM,24.8,21.2,86,29.80,6.2,NE,16.1,-,N/A,,Mostly Cloudy,50,2013-03-11 04:25:00
5:55 AM,24.8,21.2,86,29.80,6.2,NE,18.4,-,N/A,,Overcast,40,2013-03-11 04:55:00
6:25 AM,24.8,21.2,86,29.80,6.2,NE,16.1,-,N/A,,Mostly Cloudy,50,2013-03-11 05:25:00
6:55 AM,24.8,21.2,86,29.83,6.2,NE,16.1,-,N/A,,Overcast,50,2013-03-11 05:55:00
7:25 AM,24.8,21.2,86,29.83,3.7,NE,16.1,-,N/A,Snow,Light Snow,50,2013-03-11 06:25:00
7:55 AM,24.8,21.2,86,29.83,3.7,NE,12.7,-,N/A,Snow,Light Snow,50,2013-03-11 06:55:00
8:25 AM,24.8,21.2,86,29.83,3.7,NE,17.3,-,N/A,Snow,Light Snow,50,2013-03-11 07:25:00
8:55 AM,24.8,21.2,86,29.83,6.2,NE,16.1,-,N/A,,Mostly Cloudy,50,2013-03-11 07:55:00
9:25 AM,24.8,21.2,86,29.83,6.2,NE,17.3,-,N/A,,Mostly Cloudy,50,2013-03-11 08:25:00
9:55 AM,26.6,21.2,80,29.83,5.0,ENE,17.3,-,N/A,,Small Hail,60,2013-03-11 08:55:00
10:00 AM,26,22,78,29.86,5,NE,17.9,,,Snow,Light Snow Showers,50,2013-03-11 09:00:00
10:25 AM,26.6,23.0,86,29.83,5.6,NE,19.6,-,N/A,Snow,Light Snow,50,2013-03-11 09:25:00
10:55 AM,26.6,23.0,86,29.83,3.7,NE,15.0,-,N/A,Snow,Light Snow,50,2013-03-11 09:55:00
11:25 AM,28.4,23.0,80,29.83,6.2,NE,13.8,-,N/A,,Mostly Cloudy,50,2013-03-11 10:25:00
11:55 AM,28.4,23.0,80,29.83,6.2,NE,16.1,-,N/A,,Overcast,50,2013-03-11 10:55:00
12:25 PM,28.4,23.0,80,29.83,6.2,ENE,16.1,-,N/A,,Overcast,60,2013-03-11 11:25:00
12:55 PM,28.4,23.0,80,29.83,6.2,ENE,18.4,-,N/A,,Mostly Cloudy,60,2013-03-11 11:55:00
1:00 PM,29,22,68,29.85,16,NE,15.7,,,Snow,Light Snow Showers,50,2013-03-11 12:00:00
1:25 PM,28.4,23.0,80,29.83,6.2,ENE,16.1,-,N/A,,Scattered Clouds,70,2013-03-11 12:25:00
1:55 PM,30.2,21.2,69,29.83,6.2,NE,18.4,-,N/A,,Scattered Clouds,50,2013-03-11 12:55:00
2:25 PM,28.4,21.2,74,29.83,6.2,NE,17.3,-,N/A,,Mostly Cloudy,50,2013-03-11 13:25:00
2:55 PM,30.2,21.2,69,29.83,6.2,NE,16.1,-,N/A,,Overcast,50,2013-03-11 13:55:00
3:25 PM,28.4,21.2,74,29.83,6.2,NE,16.1,-,N/A,,Overcast,50,2013-03-11 14:25:00
3:55 PM,28.4,21.2,74,29.83,6.2,ENE,18.4,-,N/A,,Mostly Cloudy,60,2013-03-11 14:55:00
4:00 PM,29,22,66,29.84,19,NE,17.9,,,Snow,Snow,50,2013-03-11 15:00:00
4:25 PM,28.4,21.2,74,29.83,6.2,NE,18.4,-,N/A,,Mostly Cloudy,50,2013-03-11 15:25:00
4:55 PM,28.4,21.2,74,29.83,6.2,NE,13.8,-,N/A,,Mostly Cloudy,50,2013-03-11 15:55:00
5:25 PM,28.4,21.2,74,29.83,6.2,NE,16.1,-,N/A,,Mostly Cloudy,50,2013-03-11 16:25:00
5:55 PM,28.4,21.2,74,29.83,6.2,NE,16.1,-,N/A,,Scattered Clouds,50,2013-03-11 16:55:00
6:25 PM,28.4,19.4,69,29.83,6.2,NE,13.8,-,N/A,,Mostly Cloudy,40,2013-03-11 17:25:00
6:55 PM,28.4,21.2,74,29.83,6.2,NE,12.7,-,N/A,,Mostly Cloudy,50,2013-03-11 17:55:00
7:00 PM,28,20,63,29.85,28,NE,13.4,,,,Partly Cloudy,40,2013-03-11 18:00:00
7:25 PM,26.6,19.4,74,29.83,6.2,NE,13.8,-,N/A,,Partly Cloudy,50,2013-03-11 18:25:00
7:55 PM,26.6,19.4,74,29.83,6.2,NE,12.7,-,N/A,,Unknown,50,2013-03-11 18:55:00
8:25 PM,26.6,19.4,74,29.83,6.2,NE,15.0,-,N/A,,Unknown,50,2013-03-11 19:25:00
8:55 PM,26.6,19.4,74,29.83,6.2,NE,15.0,-,N/A,,Unknown,50,2013-03-11 19:55:00
9:25 PM,26.6,19.4,74,29.86,6.2,NE,16.1,-,N/A,,Unknown,50,2013-03-11 20:25:00
9:55 PM,26.6,19.4,74,29.86,6.2,NE,16.1,-,N/A,,Unknown,50,2013-03-11 20:55:00
10:00 PM,26,20,68,29.87,28,NE,15.7,,,,Overcast,50,2013-03-11 21:00:00
10:25 PM,26.6,19.4,74,29.86,6.2,NE,16.1,-,N/A,,Unknown,50,2013-03-11 21:25:00
10:55 PM,26.6,19.4,74,29.86,6.2,NE,17.3,-,N/A,,Unknown,50,2013-03-11 21:55:00
11:25 PM,26.6,19.4,74,29.86,6.2,NE,17.3,-,N/A,,Unknown,50,2013-03-11 22:25:00
11:55 PM,24.8,19.4,80,29.86,6.2,NE,16.1,-,N/A,,Unknown,50,2013-03-11 22:55:00